RH
21 15 10 7 7 7 8 8 9 9 9 9 10 10 9 9 9 9 8 8 8 7 7 7 6 6 6 6 6 5 5 5 5 5 5 5 5 4 5 5 5 5
12 9 8 8 9 9 9 9 9 10 10 10 11 10 10 10 9 9 9 8 8 8 7 7 7 6 6 6 6 6 5 5 5 5 5 5 5 4 5 5 5 5
8 8 9 10 10 10 10 11 11 11 11 11 11 11 10 10 10 9 9 9 8 8 8 7 7 7 7 6 6 6 6 5 5 5 5 5 5 5 4 4 5 5
8 9 10 11 11 11 12 12 12 12 12 12 12 11 11 10 10 10 9 9 9 8 8 8 8 7 7 7 7 6 6 6 5 5 5 5 4 4 4 4 5 4
9 10 11 12 12 12 13 13 13 13 13 13 12 12 12 11 11 10 10 10 9 9 9 8 8 8 8 7 7 7 6 5 5 5 5 4 4 4 4 4 4 4
11 12 12 13 13 13 14 14 14 14 13 13 13 12 12 11 11 11 10 10 9 10 9 9 9 8 8 8 7 6 6 5 5 5 5 4 4 4 4 4 5 4
12 13 13 14 14 14 15 15 15 14 14 14 13 13 12 12 12 11 11 10 10 10 9 9 9 8 7 7 6 6 5 5 5 5 5 5 4 4 4 5 5 4
14 14 14 15 15 16 16 15 15 15 14 14 14 13 13 12 12 11 11 10 9 9 9 8 7 7 7 6 6 6 5 5 6 5 6 5 5 5 5 5 6 5
15 16 16 17 17 16 16 16 16 15 15 14 13 13 12 11 11 10 10 9 8 8 7 7 7 6 6 6 6 6 5 6 6 6 6 6 6 6 6 6 7 6
17 17 17 18 17 17 17 16 16 15 14 14 13 12 11 10 10 9 8 8 7 7 6 6 6 6 6 6 6 7 6 6 6 7 7 7 7 7 6 7 7 6
18 19 19 19 18 17 17 16 15 14 13 12 11 10 9 9 8 8 8 7 6 7 7 6 7 7 7 7 7 8 8 7 7 8 7 7 7 7 7 7 7 7
20 20 19 19 18 17 16 14 13 12 11 11 10 9 9 8 8 8 8 8 7 7 8 7 8 8 8 8 8 9 9 9 9 8 8 8 8 8 8 8 8 8
20 19 18 17 16 15 14 13 12 11 10 10 9 9 9 8 9 9 9 9 9 9 9 9 9 9 9 10 10 10 10 10 10 9 9 9 8 9 9 8 9 9
18 17 17 15 14 14 12 12 11 11 10 10 10 10 11 11 11 11 11 11 11 12 11 12 11 11 11 11 11 11 11 11 11 10 10 10 9 9 9 9 9 9
17 16 15 14 13 12 12 12 11 11 12 11 12 13 12 13 13 13 13 13 13 14 13 13 13 13 13 13 12 12 12 12 11 10 10 10 10 9 9 10 10 9
16 15 14 13 13 12 12 13 13 13 14 14 14 15 15 15 15 15 15 15 14 15 14 15 15 14 14 14 14 14 14 13 13 12 12 11 10 10 9 9 10 9
15 14 14 13 14 14 14 15 15 15 16 16 16 17 17 17 16 16 16 16 17 16 16 16 15 15 16 16 16 18 20 22 20 16 15 14 12 12 10 9 10 9
15 14 15 15 16 17 17 18 18 18 18 18 18 18 18 17 17 17 17 18 19 18 17 17 16 18 22 22 22 25 31 39 40 33 29 29 27 25 22 16 13 11
16 16 17 18 19 19 19 20 20 20 20 20 19 19 19 18 19 20 20 22 22 21 20 20 21 26 31 32 34 39 46 58 67 67 64 63 58 53 47 40 36 36
19 19 20 20 21 21 21 21 22 21 21 21 20 20 20 21 23 24 24 24 24 26 28 28 32 39 43 46 52 58 66 77 89 94 93 92 87 81 78 75 74 77
21 21 21 21 22 23 22 22 22 22 22 22 22 23 24 25 27 27 27 28 32 40 43 41 44 52 56 62 71 78 86 95 101 102 100 100 100 97 97 97 95 95
24 23 23 23 23 23 22 22 23 23 24 25 25 26 28 30 30 31 34 39 45 52 56 52 54 66 74 80 88 94 100 102 101 101 100 100 101 100 100 101 100 100
26 24 24 24 23 24 23 23 25 25 27 30 31 31 32 32 34 37 45 54 58 60 64 64 68 81 91 93 95 98 103 103 101 100 100 100 100 100 100 100 100 100
27 26 26 25 25 26 26 26 28 28 31 36 39 39 37 36 41 49 57 64 65 66 76 83 85 92 99 99 97 96 100 103 101 99 100 100 100 100 100 100 100 100
28 28 28 28 27 28 28 30 32 33 37 43 46 45 43 44 54 64 67 67 68 75 89 98 97 98 100 101 99 96 97 101 102 100 100 99 100 100 100 100 100 100
29 30 30 30 31 31 31 36 40 42 45 49 49 48 49 55 67 75 73 69 74 85 97 101 101 101 100 100 101 98 98 102 104 102 100 99 99 100 100 100 101 99
Wind_Speed
44 43 43 43 43 44 45 46 47 47 48 49 49 50 50 50 50 50 50 50 50 51 51 52 52 52 53 53 53 54 54 55 56 57 58 59 59 59 59 59 59 59
42 42 43 43 44 45 46 48 49 49 49 50 50 51 51 51 51 51 51 51 51 52 52 53 54 54 55 55 56 56 57 57 57 58 60 61 61 62 62 62 62 61
41 42 43 44 45 46 47 48 49 50 50 50 51 51 51 52 52 52 52 53 53 54 54 55 55 56 56 57 58 59 59 60 60 61 62 63 63 64 65 65 65 64
42 43 44 45 46 47 48 49 50 50 50 51 51 51 52 52 53 53 54 54 55 56 56 57 57 57 58 59 60 61 61 62 63 63 64 64 65 65 66 66 67 66
44 45 46 47 48 49 49 50 51 51 51 52 52 52 53 53 54 55 55 56 57 57 58 59 59 60 60 61 61 62 63 64 64 65 66 67 66 66 66 67 67 67
46 47 48 49 50 51 51 52 52 52 53 53 53 54 54 55 56 56 57 58 59 60 60 61 61 62 62 63 63 63 64 64 65 65 67 67 67 67 67 67 67 67
48 49 50 51 52 52 53 53 53 54 55 55 55 56 57 57 58 58 59 60 61 62 63 64 64 65 65 65 65 64 64 64 65 65 66 67 67 68 67 67 67 67
49 50 51 52 52 53 54 54 55 55 56 57 57 58 58 59 60 61 62 63 63 64 65 65 66 66 66 66 66 66 65 65 65 65 66 66 66 67 67 67 67 67
51 52 52 53 54 54 55 55 56 56 57 58 58 59 60 61 62 63 64 65 66 66 66 66 67 66 67 67 67 67 66 66 65 65 65 66 66 66 66 66 68 68
52 53 54 55 56 57 57 57 58 58 59 60 61 61 62 63 64 65 66 66 67 67 67 67 67 67 67 67 67 67 67 67 66 65 65 66 66 66 66 66 68 68
54 55 56 57 58 59 59 60 61 61 62 63 63 64 64 65 65 66 67 67 67 68 68 68 68 68 68 68 67 67 67 67 67 66 66 66 66 66 66 67 67 68
56 57 58 58 59 60 61 62 62 63 64 64 65 65 66 66 66 66 67 67 67 68 68 68 68 68 68 68 68 67 67 67 67 67 66 66 66 66 66 66 67 67
57 58 59 60 60 61 62 62 63 63 64 64 65 65 65 66 66 66 66 66 67 67 67 67 68 68 68 68 67 67 67 67 67 67 67 66 66 66 66 66 65 66
58 59 60 61 61 62 62 63 63 63 64 64 64 64 64 65 65 65 65 65 65 66 66 66 67 67 67 67 67 66 66 66 66 65 66 66 65 65 64 64 64 64
60 61 62 62 62 63 63 63 63 63 63 63 63 63 63 64 64 64 65 64 64 64 64 64 64 65 65 65 65 65 65 65 65 65 64 64 64 64 62 62 62 62
62 62 63 63 62 63 63 63 63 63 63 63 62 62 63 63 63 62 63 63 63 63 62 62 62 62 62 62 63 64 64 65 65 64 63 63 63 62 61 60 59 59
62 62 62 62 62 62 62 62 62 62 62 61 61 61 61 61 61 61 61 61 61 62 61 61 61 61 62 62 62 62 62 63 64 63 63 62 62 61 60 58 57 56
62 62 62 61 61 61 60 60 60 60 60 60 60 60 59 59 59 60 60 60 60 60 60 61 61 62 62 62 61 60 59 59 60 60 60 59 58 57 55 54 54 54
61 61 61 61 60 60 59 59 59 58 58 58 58 58 58 59 59 59 59 58 59 60 61 61 62 62 62 61 59 58 56 54 53 52 52 51 51 50 49 49 49 49
60 61 60 59 59 58 58 57 57 57 57 57 57 57 58 58 58 58 58 58 59 60 62 62 61 61 60 58 55 54 51 48 45 44 43 43 44 44 43 43 43 42
60 59 58 58 57 57 56 56 56 56 56 56 56 56 57 57 57 57 58 58 59 60 61 60 59 58 56 53 50 47 44 41 38 37 38 38 39 39 39 40 41 40
58 58 57 57 56 56 56 55 55 55 55 55 56 56 56 56 56 57 58 58 58 58 58 58 55 51 48 46 43 39 37 35 33 33 34 35 35 36 37 39 40 40
57 57 56 56 55 55 55 55 54 54 54 54 55 55 55 55 56 57 57 57 56 55 54 53 50 44 40 39 37 33 32 31 30 30 31 31 31 32 33 35 36 38
56 55 55 55 54 54 54 54 54 53 53 53 54 55 55 56 56 56 55 53 52 51 48 45 42 37 33 34 35 33 31 30 29 29 29 28 28 28 28 29 31 33
54 54 54 54 54 53 53 53 53 52 52 52 53 54 55 55 55 54 53 50 48 46 41 36 34 32 30 32 35 35 33 31 30 30 29 26 26 26 26 27 29 30
53 53 53 53 53 52 52 51 51 51 51 51 52 53 53 53 52 51 49 47 44 40 34 29 28 29 29 32 34 34 33 30 30 31 29 27 25 25 25 26 27 28
Wind_Direction
301 299 297 294 294 293 293 293 293 294 294 294 293 293 292 292 292 292 292 292 293 293 293 293 292 292 291 290 289 288 287 287 287 286 286 286 285 284 283 283 281 280
301 299 297 296 295 295 295 295 295 295 295 295 295 294 294 294 294 293 293 293 293 293 293 292 292 292 291 291 290 289 288 287 286 286 285 285 285 284 283 283 281 280
298 297 295 295 295 295 295 296 296 296 296 295 295 295 295 294 294 294 294 293 293 292 292 292 292 291 291 290 290 289 288 287 286 285 284 283 283 282 282 282 281 280
296 295 295 295 296 296 297 297 297 297 296 296 296 296 295 295 295 294 294 294 293 293 293 292 292 291 291 290 290 289 288 287 286 285 284 283 282 281 281 280 280 279
298 298 298 298 298 299 299 299 299 298 298 297 297 297 296 296 295 295 294 294 293 293 293 292 292 291 291 290 289 288 287 286 285 284 283 282 281 280 280 279 278 278
300 300 300 301 301 301 301 301 300 300 299 299 298 298 297 297 296 295 295 294 294 293 293 292 291 290 290 289 287 287 286 285 284 283 282 282 281 280 279 278 277 277
300 300 301 301 302 302 302 302 302 301 300 300 299 299 298 298 297 296 295 295 294 293 293 292 291 290 289 288 287 286 284 283 282 281 280 280 280 279 278 278 277 276
301 302 302 302 302 302 302 302 302 302 301 300 300 299 299 298 297 296 296 295 294 293 293 292 291 290 290 288 287 286 284 283 281 280 279 278 277 277 277 277 276 276
303 303 304 304 304 304 303 303 302 302 301 300 300 299 298 298 297 297 296 295 295 294 293 293 292 291 290 288 287 286 284 283 281 280 278 277 276 275 275 275 275 274
305 305 306 306 306 305 305 304 303 303 302 301 301 300 300 299 299 298 297 297 296 295 294 293 292 290 289 288 287 285 284 282 281 279 278 277 276 275 274 273 272 272
307 307 307 307 307 307 306 306 305 304 304 303 303 302 301 301 300 299 298 297 296 295 294 293 292 291 289 288 287 286 284 283 281 279 278 276 275 274 273 272 271 270
309 309 308 308 308 307 306 306 305 305 305 304 304 303 302 301 301 300 299 298 297 296 295 294 293 292 291 290 288 287 286 284 282 281 279 277 275 273 272 270 269 268
310 309 309 308 308 307 307 306 306 306 305 305 304 303 303 302 301 300 299 299 298 297 296 295 294 293 292 291 290 289 287 286 284 282 280 278 275 273 272 270 268 267
311 310 310 309 309 308 308 308 307 307 306 306 305 305 304 303 302 301 300 300 299 298 297 296 295 294 293 293 291 290 289 287 285 283 281 279 277 274 272 270 267 265
312 312 311 311 310 310 310 309 308 308 307 307 306 306 305 304 303 302 301 300 299 299 298 297 296 296 295 294 293 292 290 288 286 284 282 280 277 275 272 269 267 264
313 312 312 312 311 311 310 310 309 308 308 307 307 306 305 304 303 302 302 301 300 299 299 298 298 297 296 295 294 293 291 290 288 285 283 280 277 275 272 269 267 264
313 312 312 312 311 311 310 310 309 309 308 307 307 306 305 304 304 303 302 302 302 301 301 300 299 298 297 295 294 293 292 290 287 284 282 280 277 275 273 270 267 264
313 312 312 312 312 312 311 310 310 309 309 308 307 307 306 305 305 304 304 304 304 303 302 301 300 299 298 297 295 293 291 288 285 282 280 278 277 275 273 270 267 263
314 313 313 313 313 312 312 311 311 310 310 310 309 308 307 307 306 306 306 307 306 305 304 303 302 301 300 298 296 293 289 286 283 282 280 277 275 273 271 269 266 263
314 314 314 313 313 313 313 312 312 312 312 311 310 309 309 308 309 309 309 309 309 308 307 306 305 303 301 300 297 293 289 286 283 280 277 274 273 271 269 266 262 259
314 314 314 314 314 314 314 314 313 313 313 312 311 311 311 311 311 312 312 312 311 311 310 308 307 306 304 302 298 294 290 285 281 276 273 271 270 268 264 260 257 254
315 315 316 316 316 315 315 315 315 315 315 314 313 312 313 313 314 315 315 314 314 313 312 311 310 309 307 304 301 297 291 284 279 275 272 271 269 266 261 257 255 253
318 318 317 317 317 317 317 317 317 316 316 315 315 314 315 316 317 317 317 317 317 316 315 314 313 313 313 312 309 303 294 285 280 276 274 271 269 267 263 259 256 254
319 319 319 319 319 319 319 319 318 317 316 317 317 317 318 318 319 318 319 320 320 319 317 315 315 317 321 320 316 311 303 293 286 282 278 273 270 269 265 259 257 255
321 321 321 321 321 320 320 319 318 317 318 319 319 319 319 320 320 320 321 322 321 319 317 315 314 317 322 322 318 315 311 302 294 288 281 273 269 268 263 256 254 253
322 323 323 322 322 321 320 319 319 319 320 320 320 319 320 321 322 323 323 322 321 319 315 312 312 315 322 327 323 317 312 305 297 290 281 272 267 265 261 257 255 254